EAG5534 SBSP-SBRP

Flight info

Callsign EAG5534
Flight time 0h 34m
Altitude 23000
Route GERTU UZ25 KOMTO
Aircraft B738/M-SDE2E3FGHIRWXY/LB1

Departure

Time 2026-04-23 21:55
Airport Congonhas–Deputado Freitas Nobre Airport (SBSP)

Arrival

Time 2026-04-23 22:29
Airport Leite Lopes Airport (SBRP)
Time Latitude Longitude Altitude Speed Heading
2026-04-23 21:42 -23.62885 -46.65707 2600 ft 0 kts 327°
2026-04-23 21:50 -23.62882 -46.65709 2600 ft 1 kts 331°
2026-04-23 21:50 -23.62870 -46.65703 2600 ft 3 kts 33°
2026-04-23 21:50 -23.62828 -46.65675 2601 ft 10 kts 13°
2026-04-23 21:51 -23.62768 -46.65688 2601 ft 10 kts 335°
2026-04-23 21:51 -23.62676 -46.65747 2601 ft 8 kts 329°
2026-04-23 21:51 -23.62618 -46.65788 2601 ft 11 kts 327°
2026-04-23 21:51 -23.62557 -46.65831 2601 ft 10 kts 327°
2026-04-23 21:52 -23.62497 -46.65873 2600 ft 10 kts 328°
2026-04-23 21:52 -23.62437 -46.65913 2600 ft 10 kts 327°
2026-04-23 21:52 -23.62379 -46.65953 2599 ft 10 kts 327°
2026-04-23 21:52 -23.62322 -46.65992 2599 ft 9 kts 327°
2026-04-23 21:53 -23.62267 -46.66030 2599 ft 9 kts 328°
2026-04-23 21:53 -23.62207 -46.66065 2591 ft 11 kts 329°
2026-04-23 21:53 -23.62123 -46.66123 2592 ft 16 kts 331°
2026-04-23 21:53 -23.62048 -46.66127 2594 ft 13 kts 34°
2026-04-23 21:54 -23.62059 -46.66069 2595 ft 0 kts 143°
2026-04-23 21:54 -23.62133 -46.66016 2597 ft 48 kts 148°
2026-04-23 21:54 -23.62677 -46.65639 2605 ft 134 kts 148°
2026-04-23 21:55 -23.63628 -46.64980 2921 ft 181 kts 149°
2026-04-23 21:55 -23.64765 -46.64224 3815 ft 201 kts 147°
2026-04-23 21:55 -23.66106 -46.63688 4366 ft 224 kts 176°
2026-04-23 21:55 -23.67700 -46.63961 4854 ft 239 kts 188°
2026-04-23 21:56 -23.69362 -46.64233 5500 ft 242 kts 185°
2026-04-23 21:56 -23.71052 -46.64453 6114 ft 248 kts 185°
2026-04-23 21:56 -23.72771 -46.64655 6753 ft 254 kts 184°
2026-04-23 21:56 -23.74513 -46.64941 7522 ft 256 kts 198°
2026-04-23 21:57 -23.75969 -46.66039 8387 ft 259 kts 231°
2026-04-23 21:57 -23.76727 -46.67826 9187 ft 265 kts 263°
2026-04-23 21:57 -23.76706 -46.69835 10069 ft 267 kts 273°
2026-04-23 21:57 -23.76591 -46.71910 10586 ft 283 kts 274°
2026-04-23 21:58 -23.76457 -46.74136 10900 ft 307 kts 274°
2026-04-23 21:58 -23.76310 -46.76539 11322 ft 324 kts 274°
2026-04-23 21:58 -23.76159 -46.79011 12091 ft 328 kts 274°
2026-04-23 21:58 -23.76007 -46.81506 12944 ft 330 kts 274°
2026-04-23 21:59 -23.75856 -46.84017 13775 ft 332 kts 275°
2026-04-23 21:59 -23.75703 -46.86554 14493 ft 337 kts 274°
2026-04-23 21:59 -23.75551 -46.89079 15198 ft 338 kts 274°
2026-04-23 22:00 -23.75239 -46.94275 16589 ft 346 kts 274°
2026-04-23 22:00 -23.75080 -46.96906 17351 ft 348 kts 274°
2026-04-23 22:00 -23.74921 -46.99546 18094 ft 350 kts 274°
2026-04-23 22:00 -23.74759 -47.02208 18771 ft 352 kts 274°
2026-04-23 22:01 -23.74598 -47.04867 19506 ft 350 kts 274°
2026-04-23 22:01 -23.74427 -47.07520 20201 ft 350 kts 276°
2026-04-23 22:01 -23.73749 -47.10072 20822 ft 353 kts 298°
2026-04-23 22:01 -23.72233 -47.12181 21429 ft 357 kts 318°
2026-04-23 22:02 -23.70147 -47.13621 21993 ft 364 kts 337°
2026-04-23 22:02 -23.67672 -47.14331 22587 ft 369 kts 346°
2026-04-23 22:02 -23.65133 -47.14844 23162 ft 373 kts 347°
2026-04-23 22:02 -23.62566 -47.15359 23700 ft 376 kts 346°
2026-04-23 22:03 -23.59990 -47.15903 24157 ft 379 kts 345°
2026-04-23 22:03 -23.57389 -47.16469 24528 ft 386 kts 345°
2026-04-23 22:03 -23.54708 -47.17060 24578 ft 400 kts 345°
2026-04-23 22:03 -23.51932 -47.17673 24659 ft 413 kts 345°
2026-04-23 22:04 -23.49071 -47.18303 24729 ft 425 kts 345°
2026-04-23 22:04 -23.46135 -47.18947 24779 ft 436 kts 345°
2026-04-23 22:04 -23.43129 -47.19605 24835 ft 445 kts 345°
2026-04-23 22:04 -23.40058 -47.20276 24884 ft 454 kts 345°
2026-04-23 22:05 -23.36937 -47.20957 24918 ft 461 kts 345°
2026-04-23 22:05 -23.33772 -47.21647 25030 ft 465 kts 345°
2026-04-23 22:05 -23.30581 -47.22344 25082 ft 469 kts 345°
2026-04-23 22:05 -23.27373 -47.23044 25078 ft 472 kts 345°
2026-04-23 22:06 -23.24148 -47.23747 25089 ft 474 kts 345°
2026-04-23 22:06 -23.20902 -47.24454 25081 ft 476 kts 345°
2026-04-23 22:06 -23.17644 -47.25164 25115 ft 478 kts 345°
2026-04-23 22:06 -23.14371 -47.25876 25115 ft 480 kts 345°
2026-04-23 22:07 -23.11084 -47.26592 25126 ft 482 kts 345°
2026-04-23 22:07 -23.07793 -47.27307 25124 ft 483 kts 345°
2026-04-23 22:07 -23.04492 -47.28025 25121 ft 484 kts 346°
2026-04-23 22:07 -23.01231 -47.28733 25123 ft 485 kts 346°
2026-04-23 22:08 -22.97915 -47.29453 25122 ft 486 kts 346°
2026-04-23 22:08 -22.94598 -47.30174 25117 ft 487 kts 346°
2026-04-23 22:08 -22.91269 -47.30896 25111 ft 487 kts 346°
2026-04-23 22:08 -22.87946 -47.31617 25105 ft 488 kts 346°
2026-04-23 22:09 -22.84616 -47.32339 25091 ft 489 kts 346°
2026-04-23 22:09 -22.81277 -47.33062 25083 ft 489 kts 346°
2026-04-23 22:09 -22.77937 -47.33786 25082 ft 490 kts 346°
2026-04-23 22:09 -22.74597 -47.34517 25076 ft 489 kts 345°
2026-04-23 22:10 -22.71313 -47.35468 25066 ft 488 kts 340°
2026-04-23 22:10 -22.68077 -47.36566 25058 ft 482 kts 339°
2026-04-23 22:10 -22.64950 -47.37675 25051 ft 464 kts 339°
2026-04-23 22:10 -22.61918 -47.38759 25055 ft 457 kts 339°
2026-04-23 22:11 -22.58906 -47.39827 25063 ft 456 kts 339°
2026-04-23 22:11 -22.55883 -47.40886 25071 ft 457 kts 339°
2026-04-23 22:11 -22.52847 -47.41935 25071 ft 458 kts 339°
2026-04-23 22:11 -22.49808 -47.42976 25072 ft 458 kts 339°
2026-04-23 22:12 -22.46805 -47.43998 25069 ft 458 kts 339°
2026-04-23 22:12 -22.43798 -47.45016 24881 ft 448 kts 340°
2026-04-23 22:12 -22.40848 -47.46013 24407 ft 440 kts 340°
2026-04-23 22:12 -22.37937 -47.46997 23876 ft 436 kts 340°
2026-04-23 22:13 -22.35047 -47.47977 23224 ft 433 kts 340°
2026-04-23 22:13 -22.32181 -47.48948 22596 ft 430 kts 341°
2026-04-23 22:13 -22.29343 -47.49910 21995 ft 426 kts 341°
2026-04-23 22:13 -22.26527 -47.50865 21413 ft 422 kts 341°
2026-04-23 22:14 -22.23736 -47.51810 20834 ft 419 kts 342°
2026-04-23 22:14 -22.20965 -47.52748 20243 ft 416 kts 342°
2026-04-23 22:14 -22.19135 -47.53367 19856 ft 414 kts 342°
2026-04-23 22:14 -22.16393 -47.54295 19279 ft 412 kts 343°
2026-04-23 22:15 -22.13667 -47.55216 18707 ft 410 kts 343°
2026-04-23 22:15 -22.10034 -47.56444 17878 ft 408 kts 343°
2026-04-23 22:15 -22.08240 -47.57049 17473 ft 405 kts 343°
2026-04-23 22:15 -22.05558 -47.57954 16895 ft 402 kts 343°
2026-04-23 22:16 -22.02902 -47.58850 16333 ft 398 kts 343°
2026-04-23 22:16 -22.00267 -47.59739 15782 ft 394 kts 343°
2026-04-23 22:16 -21.97655 -47.60619 15228 ft 392 kts 343°
2026-04-23 22:16 -21.95065 -47.61492 14659 ft 389 kts 343°
2026-04-23 22:17 -21.91656 -47.62640 13934 ft 386 kts 343°
2026-04-23 22:17 -21.89960 -47.63211 13529 ft 385 kts 343°
2026-04-23 22:17 -21.87414 -47.64068 12955 ft 381 kts 343°
2026-04-23 22:17 -21.84892 -47.64917 12403 ft 377 kts 343°
2026-04-23 22:18 -21.82397 -47.65756 11857 ft 373 kts 343°
2026-04-23 22:18 -21.79928 -47.66586 11334 ft 370 kts 343°
2026-04-23 22:18 -21.77489 -47.67406 10966 ft 362 kts 343°
2026-04-23 22:18 -21.75129 -47.68200 10802 ft 349 kts 343°
2026-04-23 22:19 -21.72851 -47.68966 10636 ft 337 kts 343°
2026-04-23 22:19 -21.70650 -47.69705 10487 ft 326 kts 343°
2026-04-23 22:19 -21.68521 -47.70420 10341 ft 315 kts 343°
2026-04-23 22:19 -21.66461 -47.71111 10219 ft 306 kts 343°
2026-04-23 22:20 -21.64458 -47.71783 10094 ft 296 kts 344°
2026-04-23 22:20 -21.62520 -47.72433 10017 ft 286 kts 344°
2026-04-23 22:20 -21.60615 -47.73072 9572 ft 286 kts 344°
2026-04-23 22:20 -21.58741 -47.73700 9234 ft 278 kts 344°
2026-04-23 22:21 -21.56921 -47.74310 8931 ft 270 kts 344°
2026-04-23 22:21 -21.55150 -47.74903 8637 ft 263 kts 344°
2026-04-23 22:21 -21.53448 -47.75473 8356 ft 256 kts 344°
2026-04-23 22:21 -21.51754 -47.76040 8092 ft 255 kts 344°
2026-04-23 22:22 -21.50052 -47.76609 7833 ft 258 kts 344°
2026-04-23 22:22 -21.48300 -47.77195 7556 ft 270 kts 344°
2026-04-23 22:22 -21.46484 -47.77771 7215 ft 273 kts 351°
2026-04-23 22:22 -21.44641 -47.77634 6819 ft 266 kts 20°
2026-04-23 22:23 -21.42919 -47.76914 6370 ft 264 kts 23°
2026-04-23 22:23 -21.41205 -47.76191 5892 ft 264 kts 22°
2026-04-23 22:23 -21.39503 -47.75503 5602 ft 256 kts 21°
2026-04-23 22:23 -21.37862 -47.74865 5448 ft 243 kts 21°
2026-04-23 22:24 -21.36350 -47.74293 5364 ft 225 kts 21°
2026-04-23 22:24 -21.34913 -47.73756 5259 ft 211 kts 21°
2026-04-23 22:24 -21.33570 -47.73255 5167 ft 197 kts 21°
2026-04-23 22:24 -21.32316 -47.72790 5077 ft 185 kts 21°
2026-04-23 22:25 -21.31128 -47.72350 4924 ft 179 kts 21°
2026-04-23 22:25 -21.29909 -47.72175 4754 ft 181 kts 350°
2026-04-23 22:25 -21.28721 -47.72546 4624 ft 174 kts 347°
2026-04-23 22:25 -21.27599 -47.72883 4484 ft 165 kts 347°
2026-04-23 22:26 -21.26513 -47.73224 4336 ft 162 kts 347°
2026-04-23 22:26 -21.25427 -47.73570 4134 ft 163 kts 347°
2026-04-23 22:26 -21.24340 -47.73918 3901 ft 162 kts 347°
2026-04-23 22:26 -21.23284 -47.74256 3703 ft 159 kts 348°
2026-04-23 22:27 -21.22232 -47.74592 3486 ft 156 kts 348°
2026-04-23 22:27 -21.21202 -47.74921 3291 ft 154 kts 348°
2026-04-23 22:27 -21.20173 -47.75249 3085 ft 157 kts 348°
2026-04-23 22:27 -21.19142 -47.75578 2940 ft 147 kts 347°
2026-04-23 22:28 -21.18196 -47.75883 2731 ft 140 kts 346°
2026-04-23 22:28 -21.17271 -47.76180 2517 ft 137 kts 346°
2026-04-23 22:28 -21.16363 -47.76467 2313 ft 135 kts 345°
2026-04-23 22:28 -21.15468 -47.76765 2103 ft 134 kts 346°
2026-04-23 22:29 -21.14586 -47.77039 1928 ft 134 kts 346°
2026-04-23 22:29 -21.13692 -47.77322 1830 ft 126 kts 346°
2026-04-23 22:29 -21.12967 -47.77551 1827 ft 83 kts 344°
2026-04-23 22:29 -21.12729 -47.77628 1828 ft 29 kts 343°
2026-04-23 22:30 -21.12562 -47.77729 1826 ft 11 kts 287°
2026-04-23 22:30 -21.12595 -47.77783 1826 ft 10 kts 219°
2026-04-23 22:30 -21.12673 -47.77817 1826 ft 15 kts 178°
2026-04-23 22:30 -21.12786 -47.77784 1826 ft 21 kts 164°
2026-04-23 22:31 -21.12957 -47.77729 1826 ft 30 kts 163°
2026-04-23 22:31 -21.13164 -47.77663 1826 ft 31 kts 164°
2026-04-23 22:31 -21.13366 -47.77601 1825 ft 29 kts 161°
2026-04-23 22:31 -21.13554 -47.77538 1825 ft 27 kts 163°
2026-04-23 22:32 -21.13723 -47.77484 1825 ft 17 kts 163°
2026-04-23 22:32 -21.13835 -47.77466 1825 ft 16 kts 214°
2026-04-23 22:32 -21.13873 -47.77563 1825 ft 0 kts 253°
2026-04-23 22:32 -21.13873 -47.77564 1825 ft 1 kts 253°
2026-04-23 22:33 -21.13882 -47.77595 1825 ft 3 kts 253°
2026-04-23 22:33 -21.13882 -47.77596 1825 ft 0 kts 253°
2026-04-23 22:33 -21.13882 -47.77597 1825 ft 0 kts 253°
2026-04-23 22:33 -21.13883 -47.77603 1825 ft 2 kts 254°
2026-04-23 22:34 -21.13884 -47.77604 1825 ft 0 kts 253°